FW8987 Weather Reports


time (UTC)temp
C
wind
direction
speed
KPH
gust
KPH
rain 1hr
cm
rain 24hr
cm
rain mn
cm
humidity
%
barometer
mb
20260509131019 17 177 4.8 9.7 0.00 0.00 0.00 27 1022.8
20260509130035 16 190 4.8 11.3 0.00 0.00 0.00 25 1022.9
20260509125030 16 187 4.8 11.3 0.00 0.00 0.00 26 1023.3
20260509124026 16 207 4.8 12.9 0.00 0.00 0.00 26 1023.4
20260509123021 16 211 6.4 12.9 0.00 0.00 0.00 27 1023.5
20260509122016 16 211 6.4 16.1 0.00 0.00 0.00 26 1023.7
20260509121031 16 166 3.2 11.3 0.00 0.00 0.00 27 1023.9
20260509120025 16 197 4.8 12.9 0.00 0.00 0.00 28 1024.0
20260509115021 15 222 6.4 12.9 0.00 0.00 0.00 27 1024.2
20260509114015 16 212 6.4 11.3 0.00 0.00 0.00 27 1024.3
20260509113031 16 193 4.8 12.9 0.00 0.00 0.00 27 1024.4
20260509112027 15 191 4.8 14.5 0.00 0.00 0.00 27 1024.5
20260509111023 15 206 8.0 14.5 0.00 0.00 0.00 27 1024.6
20260509110018 15 199 4.8 11.3 0.00 0.00 0.00 28 1024.8
20260509105033 15 202 6.4 11.3 0.00 0.00 0.00 28 1024.8
20260509104029 15 172 6.4 12.9 0.00 0.00 0.00 27 1025.0
20260509103023 15 191 6.4 12.9 0.00 0.00 0.00 29 1025.2
20260509102018 15 197 8.0 14.5 0.00 0.00 0.00 28 1025.1
20260509101033 15 179 4.8 14.5 0.00 0.00 0.00 29 1025.2
20260509100109 15 165 4.8 11.3 0.00 0.00 0.00 29 1025.3
20260509095104 15 191 4.8 14.5 0.00 0.00 0.00 29 1025.3
20260509094019 14 181 4.8 11.3 0.00 0.00 0.00 29 1025.4
20260509093015 14 183 6.4 16.1 0.00 0.00 0.00 31 1025.6
20260509092031 13 169 4.8 12.9 0.00 0.00 0.00 30 1025.7
20260509091026 15 186 4.8 11.3 0.00 0.00 0.00 30 1025.8
20260509090022 14 179 3.2 9.7 0.00 0.00 0.00 31 1025.8
20260509085016 13 180 4.8 14.5 0.00 0.00 0.00 30 1026.0
20260509084031 13 205 6.4 12.9 0.00 0.00 0.00 29 1026.1
20260509083027 13 209 6.4 14.5 0.00 0.00 0.00 28 1026.2
20260509082026 12 181 6.4 16.1 0.00 0.00 0.00 27 1026.0
20260509081017 12 203 6.4 17.7 0.00 0.00 0.00 28 1026.3
20260509080033 12 217 6.4 12.9 0.00 0.00 0.00 31 1026.4
20260509075028 12 213 6.4 14.5 0.00 0.00 0.00 32 1026.5
20260509074043 12 211 6.4 16.1 0.00 0.00 0.00 32 1026.7
20260509073019 11 193 4.8 12.9 0.00 0.00 0.00 31 1026.6
20260509072034 12 198 4.8 9.7 0.00 0.00 0.00 30 1026.7
20260509071030 11 198 4.8 12.9 0.00 0.00 0.00 30 1026.7
20260509070025 11 193 3.2 6.4 0.00 0.00 0.00 32 1026.6
20260509065059 11 188 3.2 9.7 0.00 0.00 0.00 32 1026.7
20260509064034 11 204 4.8 9.7 0.00 0.00 0.00 31 1026.7
20260509063029 11 187 4.8 14.5 0.00 0.00 0.00 32 1026.7
20260509062024 10 184 4.8 11.3 0.00 0.00 0.00 32 1026.6
20260509061024 10 200 4.8 20.9 0.00 0.00 0.00 33 1026.7
20260509060034 10 188 3.2 9.7 0.00 0.00 0.00 36 1026.7
20260509055130 10 164 1.6 4.8 0.00 0.00 0.00 38 1026.6
20260509054047 10 188 1.6 3.2 0.00 0.00 0.00 37 1026.8
20260509053021 9 185 0.0 3.2 0.00 0.00 0.00 39 1026.7
20260509052017 9 153 1.6 4.8 0.00 0.00 0.00 43 1026.9
20260509051052 9 173 0.0 1.6 0.00 0.00 0.00 43 1026.8
20260509050028 8 179 0.0 1.6 0.00 0.00 0.00 45 1026.7
20260509045042 7 171 1.6 3.2 0.00 0.00 0.00 49 1026.7
20260509044018 6 171 1.6 4.8 0.00 0.00 0.00 56 1026.7
20260509043033 5 165 1.6 3.2 0.00 0.00 0.00 59 1026.7
20260509042028 3 158 0.0 4.8 0.00 0.00 0.00 72 1026.7
20260509041024 3 0.0 0.0 0.00 0.00 0.00 75 1026.5
20260509040020 3 0.0 0.0 0.00 0.00 0.00 75 1026.5
20260509035034 1 0.0 0.0 0.00 0.00 0.00 79 1026.5
20260509034030 1 183 0.0 1.6 0.00 0.00 0.00 81 1026.5
20260509033025 0 0.0 0.0 0.00 0.00 0.00 84 1026.7
20260509032040 0 0.0 0.0 0.00 0.00 0.00 82 1026.6
20260509031015 1 0.0 0.0 0.00 0.00 0.00 82 1026.6
20260509030030 1 0.0 0.0 0.00 0.00 0.00 81 1026.6
20260509025026 1 0.0 0.0 0.00 0.00 0.00 80 1026.7
20260509024021 1 0.0 0.0 0.00 0.00 0.00 80 1026.6
20260509023016 1 0.0 0.0 0.00 0.00 0.00 78 1026.7
20260509022051 1 0.0 0.0 0.00 0.00 0.00 79 1026.7
20260509021026 2 0.0 0.0 0.00 0.00 0.00 75 1026.8
20260509020022 2 176 0.0 1.6 0.00 0.00 0.00 73 1026.8
20260509015016 2 0.0 0.0 0.00 0.00 0.00 73 1026.8
20260509014031 2 0.0 0.0 0.00 0.00 0.00 75 1026.9
20260509013026 3 0.0 0.0 0.00 0.00 0.00 75 1026.9
20260509012022 3 179 0.0 1.6 0.00 0.00 0.00 70 1026.9
20260509011017 3 171 0.0 1.6 0.00 0.00 0.00 67 1026.9
20260509010033 3 146 0.0 3.2 0.00 0.00 0.00 67 1026.9
20260509005027 3 0.0 0.0 0.00 0.00 0.00 65 1027.0
20260509004023 4 169 0.0 1.6 0.00 0.00 0.00 61 1027.0
20260509003018 5 171 0.0 1.6 0.00 0.00 0.00 58 1027.0
20260509002033 5 0.0 0.0 0.00 0.00 0.00 56 1027.0
20260509001029 4 0.0 0.0 0.00 0.00 0.00 60 1027.0
20260509000023 4 177 0.0 1.6 0.00 0.00 0.00 61 1027.1
20260508235019 5 176 0.0 1.6 0.00 0.00 0.00 59 1027.0
20260508234034 5 0.0 0.0 0.00 0.00 0.00 60 1027.1
20260508233030 5 0.0 0.0 0.00 0.00 0.00 57 1027.1
20260508232045 6 170 0.0 1.6 0.00 0.00 0.00 56 1026.9
20260508231020 6 172 0.0 1.6 0.00 0.00 0.00 55 1026.9
20260508230017 6 164 0.0 1.6 0.00 0.00 0.00 52 1026.9
20260508225052 7 166 0.0 1.6 0.00 0.00 0.00 52 1026.7
20260508224027 7 173 0.0 1.6 0.00 0.00 0.00 51 1026.9
20260508223022 7 185 0.0 1.6 0.00 0.00 0.00 50 1026.9
20260508222017 7 186 0.0 3.2 0.00 0.00 0.00 50 1026.8
20260508221032 7 196 0.0 4.8 0.00 0.00 0.00 50 1026.8
20260508220028 8 179 1.6 9.7 0.00 0.00 0.00 49 1026.7
20260508215044 8 185 1.6 4.8 0.00 0.00 0.00 49 1026.8
20260508214018 8 183 1.6 4.8 0.00 0.00 0.00 49 1026.6
20260508213034 8 182 0.0 3.2 0.00 0.00 0.00 48 1026.6
20260508212029 8 184 1.6 6.4 0.00 0.00 0.00 47 1026.4
20260508211025 9 193 1.6 3.2 0.00 0.00 0.00 48 1026.4
20260508210020 9 193 1.6 6.4 0.00 0.00 0.00 46 1026.3
20260508205023 10 186 1.6 6.4 0.00 0.00 0.00 46 1026.2
20260508204031 10 172 1.6 11.3 0.00 0.00 0.00 46 1026.2
20260508203027 10 190 3.2 11.3 0.00 0.00 0.00 45 1026.1
20260508202022 10 194 1.6 4.8 0.00 0.00 0.00 46 1025.9
20260508201016 10 185 1.6 6.4 0.00 0.00 0.00 45 1025.9
20260508200032 11 177 3.2 9.7 0.00 0.00 0.00 44 1025.7
20260508195027 11 185 3.2 6.4 0.00 0.00 0.00 43 1025.7
20260508194042 11 186 3.2 9.7 0.00 0.00 0.00 43 1025.4
20260508193017 11 188 3.2 6.4 0.00 0.00 0.00 43 1025.3
20260508192032 11 196 3.2 9.7 0.00 0.00 0.00 42 1025.2
20260508191048 11 196 1.6 6.4 0.00 0.00 0.00 43 1025.1
20260508190022 12 175 1.6 4.8 0.00 0.00 0.00 42 1025.0
20260508185039 12 185 1.6 4.8 0.00 0.00 0.00 42 1024.9
20260508184033 12 198 1.6 6.4 0.00 0.00 0.00 40 1024.9
20260508183028 13 190 3.2 4.8 0.00 0.00 0.00 39 1024.8
20260508182023 13 185 1.6 9.7 0.00 0.00 0.00 39 1024.7
20260508181018 13 197 4.8 11.3 0.00 0.00 0.00 36 1024.7
20260508180033 14 195 3.2 6.4 0.00 0.00 0.00 38 1024.5
20260508175048 14 179 3.2 12.9 0.00 0.00 0.00 37 1024.3
20260508174024 14 185 3.2 11.3 0.00 0.00 0.00 37 1024.3
20260508173018 15 192 3.2 11.3 0.00 0.00 0.00 36 1024.2
20260508172034 15 185 6.4 12.9 0.00 0.00 0.00 35 1024.1
20260508171030 15 185 3.2 11.3 0.00 0.00 0.00 35 1024.0
20260508170025 16 195 6.4 24.1 0.00 0.00 0.00 34 1024.1
20260508165020 15 196 3.2 11.3 0.00 0.00 0.00 35 1023.9
20260508164035 16 183 1.6 4.8 0.00 0.00 0.00 34 1023.9
20260508163030 16 178 4.8 12.9 0.00 0.00 0.00 34 1024.0
20260508162025 16 180 3.2 9.7 0.00 0.00 0.00 33 1023.9
20260508161020 16 188 3.2 9.7 0.00 0.00 0.00 33 1024.0
20260508160015 17 193 6.4 16.1 0.00 0.00 0.00 32 1024.0
20260508155031 16 191 3.2 11.3 0.00 0.00 0.00 33 1024.0
20260508154026 16 184 3.2 11.3 0.00 0.00 0.00 34 1024.0
20260508153021 16 198 6.4 12.9 0.00 0.00 0.00 32 1024.0
20260508152016 16 184 4.8 9.7 0.00 0.00 0.00 32 1024.2
20260508151033 16 207 4.8 11.3 0.00 0.00 0.00 32 1024.1
20260508150027 16 212 4.8 14.5 0.00 0.00 0.00 32 1024.1
20260508145022 17 187 4.8 11.3 0.00 0.00 0.00 32 1024.1
20260508144017 17 206 6.4 11.3 0.00 0.00 0.00 32 1024.3
20260508143033 16 209 4.8 12.9 0.00 0.00 0.00 32 1024.2
20260508142029 17 197 4.8 11.3 0.00 0.00 0.00 33 1024.4
20260508141023 17 209 4.8 14.5 0.00 0.00 0.00 32 1024.4
20260508140019 17 200 3.2 12.9 0.00 0.00 0.00 33 1024.4
20260508135054 16 195 6.4 14.5 0.00 0.00 0.00 33 1024.3
20260508134030 16 192 4.8 9.7 0.00 0.00 0.00 33 1024.5
20260508133025 17 202 6.4 14.5 0.00 0.00 0.00 33 1024.5
20260508132020 17 199 4.8 9.7 0.00 0.00 0.00 32 1024.6